sat.trackr.live / text

‹ back to catalog

STARLINK-37936

NORAD 69563 · 2026-135T

PAYLOAD ACTIVE UNKNOWN

§ Identity

Operator
Country
US
Launch date
2026-06-15
Launch site
AFWTR
Launch vehicle
Mass (kg)
RCS (m²)

Purposes: comms

External: N2YO · Heavens-Above · Gunter

§ Orbital elements

Epoch: 2026-09-19T12:38:37.671360Z

Period
93.91 min
Inclination
97.2826°
Eccentricity
0.0000655
Mean motion
15.33449563 rev/d
Perigee alt
465.1 km
Apogee alt
466.0 km
Semi-major
6,843.7 km
B*
4.5308e-4
RAAN
290.2657°
Arg perigee
104.2704°
Mean anomaly
255.8611°
Rev number
1,485

§ Raw data

STARLINK-379361 69563U 26135T   26262.52682490  .00014582  00000+0  45308-3 0  99922 69563  97.2826 290.2657 0000655 104.2704 255.8611 15.33449563 14859

JSON: /api/v1/satellites/69563 · /tle

For live sub-satellite position, see the globe view (requires WebGL).

§ Visibility from observer

Set your observer location to see the next 7 days of passes ≥ 10°. The values pass through the URL so the page stays shareable.

No JS? Fill the form by hand. The geolocation button needs JavaScript.